84P/Giclas (2027)

Japanese version
Home page
Updated on August 9, 2026

---------------------------------------------------------------------

* Profile

* Pictures

* Orbital Elements

Epoch 2026 June 9.0 TT = JDT 2461200.5
T 2027 Feb. 12.70996 TT                                 Pike
q   1.7198704            (2000.0)            P               Q
n   0.14736251     Peri.  281.73958     +0.85952289     -0.49558855
a   3.5498612      Node   108.07975     +0.50500449     +0.78587022
e   0.5155105      Incl.    7.55277     +0.07868203     +0.36986482
P   6.69
From 1748 observations 1978 Sept. 3-2026 June 26, mean residual 0".7.
     Nongravitational parameters A1 = +0.05, A2 = -0.0024.

* Finding Charts

* Magnitudes Graph

        m1 = 10.5 + 5 log d + 15.0 log r(t - 70)

---------------------------------------------------------------------

The orbital elements are published on M.P.E.C. 2026-N12.
The charts are made with StellaNavigator Ver.11 (AstroArts).
The magnitudes graphs are made with Comet for Windows.

---------------------------------------------------------------------

Copyright(C) Seiichi Yoshida (comet@aerith.net). All rights reserved.